FLOCK 4BE-14

Last updated on Mon Sep 16 2024 00:02:03 GMT+0000 (Coordinated Universal Time)

1 60517U 24149BB 24258.88259235 .00018733 00000+0 88233-3 0 9990 2 60517 97.4381 334.0170 0007180 54.4544 305.7360 15.19546649 4416
UTC large
Height (km)
Speed (km/s)
/
Latitude / Longitude
Inclination (degrees)
Orbital Period (minutes)
Azimuth
Elevation
Range (km)
Doppler Factor

Next 0 passes for location: London (51.5072 / 0.1276)

Sorry there are no passes over London.